Regional Weather Roundup
Issued by NWS

Home | Current Version | Previous Version | Text Only | Print | Product List | Glossary Off
Versions: 1 2 3 4 5 6 7 8 9 10 11 12 13 14 15 16 17 18 19 20 21 22 23 24 25 26 27 28

000
ASUS45 KBOU 230010
RWRCO

WEATHER ROUNDUP FOR COLORADO
NATIONAL WEATHER SERVICE DENVER/BOULDER CO
500 PM MST WED NOV 22 2017

NOTE: "FAIR" INDICATES FEW OR NO CLOUDS BELOW 12000 FEET WITH NO
SIGNIFICANT WEATHER AND/OR OBSTRUCTIONS TO VISIBILITY.

COZ001>005-013-030-031-230100-
...NORTHWEST COLORADO...

CITY           SKY/WX    TMP DP  RH WIND       PRES   REMARKS
CRAIG          CLOUDY    47  38  71 W5        30.41F
HAYDEN         MOCLDY    43  36  76 E8        30.44F
MEEKER         FAIR      45  37  73 NE6       30.43S
RABBIT EARS PA FOG      N/A N/A N/A W12G22    30.54S VSB 1/2
STEAMBOAT SPGS CLOUDY    38  35  89 CALM      30.44F
WALDEN         CLOUDY    41  34  75 S5        30.46S
$$

COZ006>008-011-230100-
...WEST CENTRAL VALLEYS...

CITY           SKY/WX    TMP DP  RH WIND       PRES   REMARKS
GRAND JUNCTION FAIR      59  33  37 W3        30.38S
MONTROSE       FAIR      54  32  43 N5        30.43R
EAGLE          CLOUDY    43  33  68 S3        30.49F
RIFLE          FAIR      51  37  58 S3        30.42S
DELTA          FAIR      60  30  32 CALM      30.40S
NUCLA          FAIR      63  32  31 NW7       30.42S
$$

COZ017>023-064>068-230100-
...SOUTHWEST COLORADO...

CITY           SKY/WX    TMP DP  RH WIND       PRES   REMARKS
DURANGO        FAIR      54  27  35 SW7       30.36S
CORTEZ         FAIR      59  31  34 W10       30.34S
PAGOSA SPRINGS FAIR      53  20  28 CALM      30.41R
TELLURIDE      FAIR      48  31  52 SW9G16    30.52R
WOLF CREEK PAS FAIR      36  27  69 NW13      30.64F
$$

COZ009-010-012-014-032>034-037-058>063-230100-
...CENTRAL COLORADO...

CITY           SKY/WX    TMP DP  RH WIND       PRES   REMARKS
ASPEN          CLOUDY    44  34  67 CALM      30.49S
BUENA VISTA    FAIR      47  32  55 NW16      30.44R
COPPER MTN     SNOW      34  32  93 MISG      30.61S VSB<1/4
BERTHOUD PASS  CLOUDY    28  18  64 NW44G58   30.51F WCI  10
COTTONWOOD PAS FAIR      46  34  61 NW10G17   30.51R
GUNNISON       FAIR      51  33  50 N7        30.46R
KREMMLING      CLOUDY    45  36  70 CALM      30.48S
LEADVILLE      NOT AVBL
MONARCH PASS   FAIR      34  28  80 W17G30    30.70R WCI  23
SALIDA         FAIR      55  33  44 NW10G20   30.48
SUNLIGHT       CLOUDY    34  32  93 N7        30.64S WCI  28
WILKERSON PASS MOCLDY    36  28  75 N5G23     30.57S
$$

COZ069>075-230100-
...SAN LUIS VALLEY/SANGRE DE CRISTO MOUNTAINS...

CITY           SKY/WX    TMP DP  RH WIND       PRES   REMARKS
ALAMOSA        FAIR      51  27  39 NE5       30.38R
DEL NORTE      NOT AVBL
LA VETA PASS   FAIR      39  27  60 SW14G21     N/A
SAGUACHE       NOT AVBL
$$

COZ035-036-038>040-230100-
...NORTHERN COLORADO FRONT RANGE...

CITY           SKY/WX    TMP DP  RH WIND       PRES   REMARKS
DENVER INTL AP MOCLDY    56  35  45 W8        30.24R
DMNS CITY PARK   N/A     61  33  34 N10G18    30.26R
AURORA         MOCLDY    55  35  47 W8        30.26R
FRONT RANGE AP NOT AVBL
ERIE MUNI ARPT FAIR      60  32  35 W7G17     30.28R
BOULDER MUN AP FAIR      61  32  33 NW10G20   30.24S
CENTENNIAL     MOCLDY    59  36  42 NW7       30.27R
BROOMFIELD     MOCLDY    59  34  38 W17       30.26R
FORT COLLINS   FAIR      57  38  48 NW8G17    30.23R
LONGMONT       FAIR      63  34  33 NW8       30.25R
$$

COZ041-046-047-076>085-087-088-230100-
...PIKES PEAK/PALMER DIVIDE AND SOUTHERN FOOTHILLS...

CITY           SKY/WX    TMP DP  RH WIND       PRES   REMARKS
COLO. SPRINGS  MOCLDY    59  25  27 S5        30.29R
A. F. ACADEMY  MOCLDY    52  31  44 N5        30.30R
SCHRIEVER AFB  FAIR      55  22  27 W3        30.29R
CHEYENNE MTN   FAIR      53  29  39 NW8       30.26R
ELLICOTT         N/A    N/A N/A N/A SE6       30.28R
FALCON         FAIR      52  23  32 W5        30.33R
FORT CARSON    FAIR      58  24  27 W3        30.26R
LIMON          FAIR      49  31  49 N8        30.24R
MONUMENT HILL  FAIR      50  32  50 N9        30.34R
CANON CITY     FAIR      61  34  36 W12       30.25R
WALSENBURG     FAIR      55  32  41 SW6       30.28R
TRINIDAD       FAIR      58  28  32 SW5       30.26S
$$

COZ042>045-048>051-090-091-230100-
...NORTHEAST COLORADO...

CITY           SKY/WX    TMP DP  RH WIND       PRES   REMARKS
GREELEY ARPT   FAIR      61  36  39 NW10      30.22R
AKRON          FAIR      57  35  43 NW10      30.20R
BURLINGTON     FAIR      57  36  45 N5        30.17S
WRAY           NOT AVBL
YUMA           FAIR      59  36  41 NW9       30.16R
STERLING       FAIR      61  39  44 N14       30.15S
HOLYOKE        FAIR      54  32  43 CALM      30.14R
FORT MORGAN    FAIR      62  34  35 NW14      30.20R
$$

COZ086-089-092>099-230100-
...SOUTHEAST COLORADO...

CITY           SKY/WX    TMP DP  RH WIND       PRES   REMARKS
PUEBLO         FAIR      54  27  35 CALM      30.20S
LA JUNTA       FAIR      63  31  30 W3        30.18S
LAMAR          FAIR      54  25  32 S7        30.15S
SPRINGFIELD      N/A     54  27  35 S3        30.20R
$$




USA.gov is the U.S. government's official web portal to all federal, state and local government web resources and services.